Date String (YYYY-MM-DD hh:mm:ss) UTC,Instrument flags,absolute air pressure of the measurement (hPa),sample flow rate (lpm),inlet stack bypass flow (lpm),air temperature of the measurement (°C),ambient temperature measured by the external sensor (°C),aerosol sample conditioner tube jacket temperature (°C),OPC LED temperature (°C),internal box temperature (°C),relative humidity of the measurement (%),span deviation,mass concentration of particles derived from Lorenz-Mie calculation of OPC scattering (μg/m³),mass concentration of particles derived from Lorenz-Mie calculation of OPC scattering (μg/m³),mass concentration of particles derived from Lorenz-Mie calculation of OPC scattering (μg/m³)
DateTimeUTC,F1_M11,P_M11,Q1_M11,Q2_M11,T1_M11,T2_M11,T3_M11,T4_M11,T5_M11,U1_M11,ZSPAN_M11,X0_M11,X2_M11,X1_M11
2024-03-19 14:00:00,SystemResetWarning,0830.2,5.01,000.00,018.3,017.6,000.0,026.9,020.0,15.3,0000.0,0006.05,0002.12,0000.90
2024-03-19 14:01:00,SystemResetWarning,0830.2,5.01,000.00,018.3,017.6,000.0,026.9,020.0,15.2,0000.0,0006.02,0002.12,0000.90
2024-03-19 14:02:00,SystemResetWarning,0830.2,5.00,000.00,018.3,017.6,000.0,026.9,020.0,15.3,0000.0,0005.88,0002.08,0000.90
2024-03-19 14:03:00,SystemResetWarning,0830.2,5.00,000.00,018.3,017.6,000.0,026.9,020.0,15.3,0000.0,0005.62,0002.11,0000.91
2024-03-19 14:04:00,SystemResetWarning,0830.2,5.00,000.00,018.3,017.6,000.0,026.9,020.0,15.2,0000.0,0006.02,0002.21,0000.92
2024-03-19 14:05:00,SystemResetWarning,0830.3,4.99,000.00,018.3,017.6,000.0,026.9,020.0,15.3,0000.0,0006.69,0002.25,0000.93
2024-03-19 14:06:00,SystemResetWarning,0830.2,4.99,000.00,018.3,017.6,000.0,026.9,020.0,15.3,0000.0,0006.80,0002.26,0000.95
2024-03-19 14:07:00,SystemResetWarning,0830.2,5.00,000.00,018.3,017.6,000.0,026.8,020.0,15.2,0000.0,0006.36,0002.25,0000.96
2024-03-19 14:08:00,SystemResetWarning,0830.2,5.00,000.00,018.3,017.6,000.0,026.9,020.0,15.1,0000.0,0006.24,0002.25,0000.97
2024-03-19 14:09:00,SystemResetWarning,0830.3,5.00,000.00,018.3,017.6,000.0,026.9,020.0,15.2,0000.0,0006.40,0002.28,0000.98
2024-03-19 14:10:00,SystemResetWarning,0830.3,5.00,000.00,018.3,017.6,000.0,026.9,020.0,15.1,0000.0,0006.78,0002.26,0000.97
2024-03-19 14:11:00,SystemResetWarning,0830.2,5.00,000.00,018.3,017.6,000.0,026.9,020.0,15.1,0000.0,0007.70,0002.33,0000.99
2024-03-19 14:12:00,SystemResetWarning,0830.2,4.99,000.00,018.3,017.6,000.0,026.8,020.0,15.1,0000.0,0007.72,0002.33,0001.00
2024-03-19 14:13:00,SystemResetWarning,0830.2,4.99,000.00,018.3,017.6,000.0,026.8,020.0,15.1,0000.0,0007.72,0002.37,0001.01
2024-03-19 14:14:00,SystemResetWarning,0830.3,5.00,000.00,018.3,017.6,000.0,026.9,020.0,15.1,0000.0,0007.66,0002.36,0001.01
2024-03-19 14:15:00,SystemResetWarning,0830.2,5.00,000.00,018.3,017.6,000.0,026.8,020.0,15.0,0000.0,0007.51,0002.33,0001.02
2024-03-19 14:16:00,SystemResetWarning,0830.2,5.01,000.00,018.3,017.6,000.0,026.9,020.0,15.1,0000.0,0007.48,0002.32,0001.02
2024-03-19 14:17:00,SystemResetWarning,0830.2,5.01,000.00,018.3,017.6,000.0,026.9,020.0,15.1,0000.0,0007.49,0002.23,0001.00
2024-03-19 14:18:00,SystemResetWarning,0830.2,5.00,000.00,018.3,017.6,000.0,026.8,020.0,15.1,0000.0,0007.50,0002.19,0000.99
2024-03-19 14:19:00,SystemResetWarning,0830.2,4.99,000.00,018.3,017.6,000.0,026.8,020.0,15.1,0000.0,0007.67,0002.22,0000.99
2024-03-19 14:20:00,SystemResetWarning,0830.2,4.99,000.00,018.3,017.6,000.0,026.8,020.0,15.1,0000.0,0007.61,0002.19,0000.99
2024-03-19 14:21:00,SystemResetWarning,0830.2,5.01,000.00,018.3,017.6,000.0,026.8,020.0,15.1,0000.0,0007.31,0002.22,0001.00
2024-03-19 14:22:00,SystemResetWarning,0830.2,5.00,000.00,018.3,017.6,000.0,026.8,020.0,15.2,0000.0,0006.38,0002.18,0000.98
2024-03-19 14:23:00,SystemResetWarning,0830.2,5.00,000.00,018.3,017.6,000.0,026.8,020.0,15.2,0000.0,0006.65,0002.25,0000.99
2024-03-19 14:24:00,SystemResetWarning,0830.2,5.01,000.00,018.3,017.6,000.0,026.8,020.0,15.2,0000.0,0006.64,0002.24,0000.99
2024-03-19 14:25:00,SystemResetWarning,0830.2,5.00,000.00,018.3,017.6,000.0,026.8,020.0,15.2,0000.0,0006.81,0002.24,0000.98
2024-03-19 14:26:00,SystemResetWarning,0830.3,4.99,000.00,018.3,017.7,000.0,026.8,020.0,15.2,0000.0,0007.39,0002.31,0000.98
2024-03-19 14:27:00,SystemResetWarning,0830.2,4.99,000.00,018.3,017.7,000.0,026.8,020.0,15.2,0000.0,0007.60,0002.33,0000.98
2024-03-19 14:28:00,SystemResetWarning,0830.2,5.01,000.00,018.3,017.7,000.0,026.8,020.0,15.2,0000.0,0007.44,0002.35,0000.97
2024-03-19 14:29:00,SystemResetWarning,0830.2,5.00,000.00,018.3,017.7,000.0,026.8,020.0,15.2,0000.0,0007.43,0002.38,0000.98
2024-03-19 14:30:00,SystemResetWarning,0830.2,5.00,000.00,018.3,017.7,000.0,026.8,020.0,15.3,0000.0,0007.35,0002.38,0000.98
2024-03-19 14:31:00,SystemResetWarning,0830.2,5.00,000.00,018.3,017.7,000.0,026.8,020.0,15.3,0000.0,0007.39,0002.42,0000.98
2024-03-19 14:32:00,SystemResetWarning,0830.2,5.00,000.00,018.3,017.7,000.0,026.8,020.0,15.3,0000.0,0007.33,0002.40,0000.96
2024-03-19 14:33:00,SystemResetWarning,0830.2,5.01,000.00,018.3,017.7,000.0,026.8,020.0,15.2,0000.0,0007.27,0002.34,0000.96
2024-03-19 14:34:00,SystemResetWarning,0830.2,5.00,000.00,018.3,017.7,000.0,026.8,020.0,15.3,0000.0,0006.87,0002.27,0000.94
2024-03-19 14:35:00,SystemResetWarning,0830.2,5.00,000.00,018.3,017.7,000.0,026.8,020.0,15.3,0000.0,0006.72,0002.22,0000.94
2024-03-19 14:36:00,SystemResetWarning,0830.2,5.00,000.00,018.3,017.7,000.0,026.8,020.0,15.4,0000.0,0006.97,0002.25,0000.93
2024-03-19 14:37:00,SystemResetWarning,0830.2,4.99,000.00,018.3,017.7,000.0,026.8,020.0,15.4,0000.0,0006.30,0002.20,0000.93
2024-03-19 14:38:00,SystemResetWarning,0830.2,5.00,000.00,018.3,017.7,000.0,026.8,020.0,15.4,0000.0,0005.35,0002.16,0000.92
2024-03-19 14:39:00,SystemResetWarning,0830.2,4.99,000.00,018.3,017.7,000.0,026.8,020.0,15.4,0000.0,0005.38,0002.16,0000.93
2024-03-19 14:40:00,SystemResetWarning,0830.2,4.99,000.00,018.3,017.8,000.0,026.8,020.0,15.5,0000.0,0005.61,0002.22,0000.94
2024-03-19 14:41:00,SystemResetWarning,0830.2,5.00,000.00,018.3,017.8,000.0,026.8,020.0,15.5,0000.0,0005.98,0002.20,0000.94
2024-03-19 14:42:00,SystemResetWarning,0830.2,5.00,000.00,018.3,017.8,000.0,026.8,020.0,15.5,0000.0,0005.79,0002.14,0000.93
2024-03-19 14:43:00,SystemResetWarning,0830.2,5.01,000.00,018.3,017.8,000.0,026.8,020.0,15.4,0000.0,0005.63,0002.09,0000.94
2024-03-19 14:44:00,SystemResetWarning,0830.2,5.00,000.00,018.3,017.8,000.0,026.8,020.0,15.5,0000.0,0005.76,0002.11,0000.95
2024-03-19 14:45:00,SystemResetWarning,0830.3,5.00,000.00,018.3,017.8,000.0,026.8,020.0,15.6,0000.0,0005.73,0002.08,0000.96
2024-03-19 14:46:00,SystemResetWarning,0830.3,5.00,000.00,018.3,017.8,000.0,026.8,020.0,15.6,0000.0,0005.83,0002.11,0000.97
2024-03-19 14:47:00,SystemResetWarning,0830.2,5.00,000.00,018.3,017.8,000.0,026.8,020.0,15.6,0000.0,0005.34,0002.05,0000.97
2024-03-19 14:48:00,SystemResetWarning,0830.2,5.00,000.00,018.3,017.8,000.0,026.8,020.0,15.6,0000.0,0005.04,0002.00,0000.98
2024-03-19 14:49:00,SystemResetWarning,0830.3,5.00,000.00,018.3,017.8,000.0,026.8,020.0,15.5,0000.0,0005.51,0002.03,0000.99
2024-03-19 14:50:00,SystemResetWarning,0830.2,5.00,000.00,018.4,017.8,000.0,026.8,020.0,15.6,0000.0,0005.88,0002.03,0000.99
2024-03-19 14:51:00,SystemResetWarning,0830.3,5.00,000.00,018.4,017.8,000.0,026.8,020.0,15.6,0000.0,0005.63,0001.98,0000.99
2024-03-19 14:52:00,SystemResetWarning,0830.3,5.00,000.00,018.4,017.8,000.0,026.8,020.0,15.6,0000.0,0005.20,0001.99,0000.99
2024-03-19 14:53:00,SystemResetWarning,0830.3,5.00,000.00,018.4,017.9,000.0,026.8,020.0,15.6,0000.0,0005.92,0002.05,0000.98
2024-03-19 14:54:00,SystemResetWarning,0830.3,5.00,000.00,018.4,017.9,000.0,026.8,020.1,15.4,0000.0,0006.59,0002.08,0000.97
2024-03-19 14:55:00,SystemResetWarning,0830.3,4.99,000.00,018.4,017.9,000.0,026.8,020.1,15.3,0000.0,0006.78,0002.06,0000.97
2024-03-19 14:56:00,SystemResetWarning,0830.2,4.99,000.00,018.4,017.9,000.0,026.8,020.1,15.6,0000.0,0006.91,0002.11,0000.97
2024-03-19 14:57:00,SystemResetWarning,0830.3,5.00,000.00,018.4,017.9,000.0,026.8,020.1,15.6,0000.0,0007.22,0002.08,0000.97
2024-03-19 14:58:00,SystemResetWarning,0830.3,5.00,000.00,018.4,017.9,000.0,026.8,020.1,15.7,0000.0,0007.86,0002.14,0000.96
2024-03-19 14:59:00,SystemResetWarning,0830.3,5.00,000.00,018.4,017.9,000.0,026.8,020.1,15.8,0000.0,0008.06,0002.22,0000.96
